Logo Jlantah Run

Jlantah Run Race Result

Temukan catatan waktu dan peringkat Anda. Selamat kepada seluruh Finisher!

30 Agustus 2026

Rank Nama Peserta BIB Gender Waktu Tempuh Sertifikat
#1 Muhammad Hamam Nasrudin m1047 L 00:50:40
#2 Zuniar Putra m1079 L 00:52:06
#3 Brillian Jordan m1030 L 00:53:13
#4 Tito Muhammad Syafei m1132 L 00:54:43
#5 Muhammad hafiz khoirudin m1029 L 00:55:20
#6 Andy m1125 L 00:55:30
#7 Wawan Ardyansyah m1021 L 00:56:55
#8 maqshum m1057 L 00:57:40
#9 arthur wahyu wivaksono m1130 L 00:57:40
#10 dimas rizky renanda m1131 L 00:59:50
#11 Jalu Satria Mahendra m1018 L 01:00:00
#12 Eightian Awank Adriawan m1014 L 01:00:07
#13 Wahyudi Lol m1081 L 01:00:39
#14 Dimas Mukti Pangestu m1003 L 01:01:41
#15 hermanto m1069 L 01:02:44
#16 Agus Susilo m1006 L 01:04:20
#17 Ibnu m1124 L 01:04:30
#18 Nandana Pangestu muwahid m1048 L 01:04:48
#19 Sultan Eiger Okta Azizi m1053 L 01:05:45
#20 abdullah azzam m1091 L 01:06:45
#21 Yoga Pratama m1086 L 01:07:15
#22 Syarif Hidayat m1004 L 01:07:15
#23 Bintang Wibi Hanoraga m1070 L 01:08:25
#24 Riyanto m1074 L 01:09:15
#25 Dika Bayu Prasetyo m1002 L 01:10:48
#26 Alif Pratama m1094 L 01:10:55
#27 Rohmat Suryanto m1103 L 01:11:10
#28 Ulinnuha m1080 L 01:11:27
#29 Oktavian nugroho m1098 L 01:11:27
#30 Galih Prasetyo m1087 L 01:11:40
#31 Bibit Waluyo m1055 L 01:11:45
#32 Muhammad Raihan Bradjamukti m1099 L 01:12:16
#33 Akbar Baihaqi m1116 L 01:12:29
#34 Nawaf Syihabuddin Yafiq m1012 L 01:13:35
#35 Indra m1128 L 01:13:50
#36 Mohammad Ghafai m1107 L 01:14:35
#37 Supriyanto m1113 L 01:14:40
#38 Ria Azhari Rahmawati f1040 P 01:15:00
#39 fathanhs m1061 L 01:15:30
#40 Oxcel Yoris Hanabi m1026 L 01:16:50
#41 Ilham Yoga Pratama m1022 L 01:17:00
#42 NICO JAYA PRATAMA m1015 L 01:17:00
#43 NAUFAL RO'UF RAMADHAN m1032 L 01:17:09
#44 Samuel m1126 L 01:17:09
#45 Salman Alfarisyi m1043 L 01:18:39
#46 Supriyanto m1035 L 01:18:55
#47 Agus Sujatno m1019 L 01:19:06
#48 Heri Setiawan m1082 L 01:19:18
#49 Farhat Ahmad Yasin m1001 L 01:19:59
#50 Fajar Dwi Prakoso m1121 L 01:20:05
#51 EDI RIYONO m1102 L 01:21:10
#52 tegar fadhila m1077 L 01:21:20
#53 Deni Kurniawan m1123 L 01:22:00
#54 Alif Nurrohim m1068 L 01:22:32
#55 Hernanda Adib Izzudin m1085 L 01:23:45
#56 Ramadhan Qori Saputro m1118 L 01:23:50
#57 Nurhalimah f1049 P 01:24:30
#58 Tri Hastuti f1038 P 01:25:06
#59 muhammad abdur rozaq m1039 L 01:25:30
#60 Rafyfa Thoriq Yudhatama m1056 L 01:25:43
#61 Rudi Kristanto m1058 L 01:25:56
#62 ali yusuf m1050 L 01:27:20
#63 Ariyani Ayu Kusumo f1037 P 01:27:35
#64 Ilham Natalegawa m1013 L 01:28:10
#65 Ahmad Zain m1051 L 01:28:55
#66 Dicky G Mahe m1111 L 01:29:38
#67 Steven Jun m1096 L 01:29:40
#68 Lais Ahmad Rifai m1092 L 01:29:50
#69 Wisnu Joko Purnomo m1083 L 01:30:00
#70 Ali Musthofa m1005 L 01:30:00
#71 Adi Susilo m1063 L 01:31:59
#72 Septian Ardianta m1034 L 01:32:32
#73 LUQMAN WIBISANA m1046 L 01:32:32
#74 Akhsan m1127 L 01:33:15
#75 Rakai Pikat m1067 L 01:33:51
#76 Raid Najmudin m1075 L 01:34:00
#77 Azzam Nurrahman m1007 L 01:34:00
#78 Ribut Nur Setiyono m1119 L 01:34:31
#79 Anun ristiya f1025 P 01:34:50
#80 Arghani Aqila Firdaus m1028 L 01:35:23
#81 opalnih m1060 L 01:36:00
#82 Ahmad Ghoozi Abqory m1062 L 01:36:00
#83 Adimas Saputro m1052 L 01:36:30
#84 Krisna Kusuma Wardana m1042 L 01:36:36
#85 JALU SALMAN AL FARUQ m1090 L 01:37:00
#86 sumarjo m1122 L 01:37:00
#87 Ghonim Musthofa Adli m1010 L 01:37:13
#88 ANYSA TIWIANA f1036 P 01:37:49
#89 Aga Murwando m1089 L 01:37:57
#90 suyatno m1076 L 01:38:20
#91 Gogik Wahyu biantoro m1044 L 01:38:40
#92 Muchsin Alhuda m1045 L 01:38:40
#93 Aqila Pratama m1008 L 01:39:10
#94 Syauqi Qolbi Asy Syakur m1009 L 01:39:10
#95 Yasir Azfa m1011 L 01:39:10
#96 diyana marlina f1095 P 01:40:05
#97 Ananda Pandu m1059 L 01:40:40
#98 Pravanasta Rian Setiawan m1101 L 01:41:35
#99 Kistia Sholichah f1024 P 01:42:00
#100 agus purwanto m1084 L 01:42:00
#101 Wenly Susanto m1114 L 01:43:20
#102 Angelina Siyo f1115 P 01:43:20
#103 thoathaz m1064 L 01:46:50
#104 Daffa Nur Rahman m1065 L 01:46:50
#105 devi aulia putri f1066 P 01:46:50
#106 irvan arigotama m1108 L 01:48:03
#107 Teguh Bagus Perkasa m1093 L 01:50:00
#108 Restu Utami f1027 P 01:51:00
#109 Adhitya Nugraha Edy Putra m1041 L 01:51:00
#110 Meisita Maqiatan f1112 P 01:51:00
#111 Bobby Musthova m1104 L 01:52:30
#112 Anisa Rahayu f1023 P 01:59:45
#113 nasywa amanda f1072 P 02:02:10
#114 Taufik YS m1073 L 02:03:00
#115 Catur Teguh Wahyudi m1105 L 02:03:52
#116 Fairuz Daffa m1110 L 02:04:15
#117 Yessica Viona Rahadi f1097 P 02:09:00
#118 Vira Kirana Puspasetyani f1088 P 02:16:00
#119 Asih Murwanti f1117 P 02:16:00
#120 Alfanesya yunanda prasetya f1031 P - -
#121 Syahrul Muhamad Bahtiar m1033 L - -
#122 ANDREAN PRIMA m1054 L - -
#123 Tony Hanoraga m1071 L - -
#124 Muhammad Maulana maghribi m1078 L - -
#125 Jatmikoadi m1100 L - -
#126 Muhammad kusyaeri m1106 L - -
#127 Kusnendar Yudiwinoto m1109 L - -
#128 Gastyadirrizal Nayotama Josap m1120 L - -
#129 Raffi m1129 L - -
#130 Alshandio Ashar m1016 L - -
#131 Aan Mardian m1017 L - -
#132 Joko Susilo m1020 L - -
Rank Nama Peserta BIB Gender Waktu Tempuh Sertifikat
#1 Alif Firdaus Arifudin m5087 L 00:26:05
#2 Adhimas Teguh Alim m5004 L 00:28:40
#3 Shidiq Maulana Pratama Putra m5018 L 00:28:50
#4 Sunardi m5043 L 00:29:20
#5 Musliyanto m5053 L 00:29:20
#6 Aviv Isya Nurrahma m5050 L 00:29:50
#7 Afzal Satria Utama m5008 L 00:31:15
#8 Widyatmoko m5011 L 00:32:05
#9 Alfian Tio Saputro m5054 L 00:32:05
#10 Mahmud Azis Arifin m5076 L 00:32:05
#11 M.husyen Al firdaus m5066 L 00:33:40
#12 Rakadea Andhito m5072 L 00:33:40
#13 Rohmat Hamdani m5065 L 00:33:50
#14 Galih indra kusuma m5009 L 00:34:20
#15 Chafid Khoiru Nurchasn m5016 L 00:34:20
#16 BAGAS INDRA RUSDIAN m5022 L 00:36:31
#17 YUSUFA GULAM MUBARAK m5019 L 00:37:38
#18 Suryono m5120 L 00:37:51
#19 FALIH ZAHRAN RAMADHANY S m5110 L 00:38:12
#20 Damian Ramdhani Pratama m5015 L 00:38:20
#21 Muhammad Fallah Pratama m5071 L 00:38:49
#22 Ghani m5123 L 00:40:05
#23 Raditya Arata Nadi Waskhita m5070 L 00:40:22
#24 IDAH HAJAR ANI f5023 P 00:40:48
#25 Kadysha vidya chandani f5049 P 00:41:12
#26 DIDIK LAPAK SOLO m5014 L 00:42:15
#27 Sifa Isnaini Fajri f5020 P 00:42:21
#28 Priyansa Albar Putra m5111 L 00:42:22
#29 LUQMAN BURHANI ALHISYAM m5073 L 00:42:41
#30 endri mustika f5080 P 00:42:41
#31 Tri Wahyu Mugi Raharjo m5099 L 00:42:41
#32 Wahyu Lestari f5017 P 00:44:15
#33 Ninit Sularni f5093 P 00:44:50
#34 Surato m5052 L 00:45:08
#35 Dzulki Dwi Novian m5128 L 00:45:35
#36 ANA ISTANTI f5007 P 00:45:44
#37 Retno Ayu Maharani f5024 P 00:45:44
#38 Rita Listyantina f5094 P 00:46:06
#39 Suharni f5125 P 00:46:20
#40 Sholeh Febrianto m5012 L 00:47:21
#41 Tsakti Afrian Maulan m5086 L 00:47:22
#42 Dewi Purwanti f5036 P 00:47:25
#43 Sutini f5037 P 00:47:59
#44 Azka Manggala m5127 L 00:48:28
#45 Abbu Shofyan m5003 L 00:50:24
#46 Selvi Natasari f5010 P 00:51:11
#47 WIDODO m5084 L 00:51:55
#48 Vania Nindia Aryani f5057 P 00:52:53
#49 Yuningsih f5001 P 00:53:20
#50 FITRI YANI f5002 P 00:53:20
#51 Rinil Sahari f5056 P 00:53:20
#52 Ida Khumaida f5112 P 00:53:20
#53 Sri Lestari f5006 P 00:53:25
#54 Wahyu setyorini f5113 P 00:53:25
#55 Bilal Satya Wicaksana m5058 L 00:54:40
#56 Febri Puguh Ramadan m5068 L 00:54:40
#57 Hari Siswanti f5078 P 00:54:56
#58 Agus Sarwoko m5028 L 00:55:10
#59 Sriyanto m5055 L 00:55:10
#60 Bayu Nurachim m5069 L 00:55:10
#61 Cuti Nurani f5032 P 00:56:00
#62 Novi Indriyani f5033 P 00:56:00
#63 Liya windriyani f5013 P 00:56:54
#64 Abiyu Afkar Idian m5026 L 00:58:10
#65 Dynar Ramdhan Wijaya m5027 L 00:58:14
#66 Jelita Azzahra Putri f5025 P 00:58:20
#67 Anggunia Kusuma Anggraini f5059 P 00:59:20
#68 Jeni Aditya Putri f5060 P 00:59:20
#69 Silvia Kumalasari f5061 P 00:59:28
#70 Heni Parwathi f5062 P 00:59:28
#71 Mutiara Herawati Mafaiz f5067 P 00:59:30
#72 janitra raras aruna wijanarko f5114 P 01:00:40
#73 Jisnu Eko Wijanarko m5046 L 01:00:40
#74 DUDUN KARNAWIJAYA f5090 P 01:00:50
#75 Partini f5035 P 01:01:15
#76 Muhammad Brilian Wibisono m5088 L 01:02:11
#77 Rohmat Jumali m5038 L 01:03:29
#78 Nunung Wijayanto, S.H. m5031 L 01:03:39
#79 Sri wartini f5103 P 01:03:39
#80 Sriyatno m5042 L 01:04:18
#81 fitri zufriana f5085 P 01:04:18
#82 Tri Mulatsih f5102 P 01:04:19
#83 Dina subekti f5005 P 01:06:10
#84 Dwi Admini f5083 P 01:06:10
#85 dwi purwaningsih f5095 P 01:06:15
#86 Gunawan m5121 L 01:08:20
#87 Gunawan m5122 L 01:08:20
#88 KARTIKA PAMILYA N f5048 P 01:09:45
#89 Puspa Anggun Kinanthi f5074 P 01:09:45
#90 rita listyorini f5091 P 01:09:45
#91 Eka Wijayanti f5092 P 01:09:45
#92 Irma suryani f5051 P 01:09:51
#93 susana leo rita s f5115 P - -
#94 Nanik Marifatulah, A.Md. f5116 P - -
#95 Untung Basuki m5117 L - -
#96 Sugeng Rudiyanto m5118 L - -
#97 Dimas Bagas Aji Prakoso m5119 L - -
#98 Wahyu Ningsih f5124 P - -
#99 Dwi Puji f5126 P - -
#100 Setia Dedi Irawan m5021 L - -
#101 Suyat m5029 L - -
#102 Giyatno m5030 L - -
#103 Sigit Prayitno, S.Pd.SD. m5034 L - -
#104 Winahyu Tri Prasetyo, S.E. m5039 L - -
#105 Sularno m5040 L - -
#106 Hartanto m5041 L - -
#107 Supriyadi m5044 L - -
#108 Sugeng Wahyudi m5045 L - -
#109 HENDHI SOFARI m5047 L - -
#110 Rudy Tri Wahyono m5063 L - -
#111 Retno Susilowati, S.Sos. f5064 P - -
#112 Dewi Lestari f5075 P - -
#113 Alisha f5077 P - -
#114 Wibowo Pamungkas m5079 L - -
#115 Wahyu Riya Mahendra m5081 L - -
#116 Nita Suryaningsih f5082 P - -
#117 Ika Kartarina Wijayanti f5089 P - -
#118 Sri Murtini f5096 P - -
#119 Aulia Ayu Atika Puti f5097 P - -
#120 Tia Septiyani f5098 P - -
#121 Murtoyo m5100 L - -
#122 SUPARNO m5101 L - -
#123 Bayu Aji Seno Waskitho m5104 L - -
#124 Felix Yulian A m5105 L - -
#125 kefin sultoon auliaa m5106 L - -
#126 Melvia Ardita f5107 P - -
#127 XINA ARDI NUGROHO m5108 L - -
#128 Hamdani Mustofa m5109 L - -